Back to catalog

COSMOS 1823 DEB

AliveLEO
NORAD 26601·DEBRIS·🇷🇺 Russia

Launched Feb 20, 1987 from Plesetsk Cosmodrome

Loading…

Next Passes (next 24 hours)

TLE

FreshSource: Space-Track

Epoch: Sep 14, 2026, 01:37 UTC

1 26601U 87020DT  26257.06799938 -.00000010  00000-0  51632-4 0  9998
2 26601  73.6001 285.1927 0027600 120.7921 267.8534 12.41294578291139

Track COSMOS 1823 DEB in real time with AllMySat

Download on the App Store